Flight Track Log - Related Links

Times and Time Zones

All times are in EDT time to prevent confusion due to time zone crossing. See the N221CH flight status page for this flight to view local times or setup timezone preferences in your user account.

Time Position Orientation Groundspeed Altitude Reporting Facility
EDT Latitude Longitude Course Direction KTS MPH feet Rate Location/Type
08:57PM 35.4097 -82.4486 69° East 160 184 5,800  Level Atlanta Center
08:58PM 35.4278 -82.3975 67° East 165 190 6,500 600 Climbing Atlanta Center
08:59PM 35.4500 -82.3433 63° Northeast 171 197 7,000 250 Climbing Atlanta Center
09:00PM 35.4742 -82.2842 63° Northeast 176 203 7,000  Level Atlanta Center
09:01PM 35.5486 -82.1799 69° East  Level FlightAware Approximate
09:01PM 35.4961 -82.2200 67° East 188 216 7,000  Level Atlanta Center
09:02PM 35.5244 -82.1556 62° Northeast 200 230 7,000  Level Atlanta Center
09:03PM 35.5464 -82.0914 67° East 200 230 7,000  Level Atlanta Center
09:04PM 35.5703 -82.0294 65° Northeast 195 224 7,000  Level Atlanta Center
09:05PM 35.5944 -81.9675 64° Northeast 195 224 7,000 50 Level Atlanta Center
09:06PM 35.6203 -81.9031 64° Northeast 195 224 7,100 50 Climbing Atlanta Center
09:07PM 35.6422 -81.8411 66° East 195 224 7,100  Level Atlanta Center
09:08PM 35.6661 -81.7792 65° Northeast 195 224 7,100  Level Atlanta Center
09:09PM 35.6878 -81.7144 68° East 195 224 7,100 -100 Level Atlanta Center
09:10PM 35.7117 -81.6500 65° Northeast 195 224 6,900 -100 Descending Atlanta Center
09:11PM 35.7375 -81.5878 63° Northeast 195 224 6,900 100 Level Atlanta Center
09:12PM 35.7614 -81.5283 64° Northeast 195 224 7,100 100 Climbing Atlanta Center
09:13PM 35.7872 -81.4661 63° Northeast 195 224 7,100  Level Atlanta Center
09:14PM 35.8089 -81.4014 68° East 195 224 7,100  Level Atlanta Center
09:15PM 35.8136 -81.3319 85° East 195 224 7,100  Level Atlanta Center
09:16PM 35.8161 -81.2628 87° East 189 217 7,100  Level Atlanta Center
09:17PM 35.8167 -81.1886 89° East 194 223 7,100  Level Atlanta Center
09:18PM 35.8192 -81.1219 87° East 199 229 7,100  Level Atlanta Center
09:19PM 35.8239 -81.0525 85° East 199 229 7,100  Level Atlanta Center
09:20PM 35.8261 -80.9833 88° East 199 229 7,100  Level Atlanta Center
09:21PM 35.8267 -80.9167 89° East 199 229 7,100  Level Atlanta Center
09:22PM 35.8292 -80.8475 87° East 199 229 7,100  Level Atlanta Center
09:23PM 35.8314 -80.7781 88° East 199 229 7,100  Level Atlanta Center
09:24PM 35.8336 -80.7089 88° East 199 229 7,100  Level Atlanta Center
09:25PM 35.8339 -80.6422 90° East 199 229 7,100 -50 Level Atlanta Center
09:26PM 35.8383 -80.5706 86° East 199 229 7,000  Descending Atlanta Center
09:27PM 35.8386 -80.5064 90° East 194 223 7,100 50 Climbing Atlanta Center
09:28PM 35.8406 -80.4372 88° East 194 223 7,100  Level Atlanta Center
09:29PM 35.8428 -80.3678 88° East 194 223 7,100  Level Atlanta Center
09:39PM 35.8617 -79.7208 90° East 197 227 7,100  Level Washington Center
09:40PM 35.8484 -79.7434 90° East  Level FlightAware Approximate
09:40PM 35.8639 -79.6544 88° East 198 228 7,100  Level Washington Center
09:41PM 35.8488 -79.6811 90° East  Level FlightAware Approximate
09:41PM 35.8639 -79.5878 90° East 196 226 7,100  Level Washington Center
09:42PM 35.8491 -79.6189 90° East  Level FlightAware Approximate
09:42PM 35.8667 -79.5111 87° East 195 224 7,100  Level Washington Center
09:43PM 35.8495 -79.5566 90° East  Level FlightAware Approximate
09:43PM 35.8647 -79.4417 92° East 194 223 7,100  Level Washington Center
09:44PM 35.8498 -79.4944 90° East  Level FlightAware Approximate
09:44PM 35.8603 -79.3825 95° East 198 228 6,800  Level Washington Center
09:45PM 35.8436 -79.3150 107° East 188 216 6,100 -609 Descending Washington Center
09:46PM 35.8267 -79.2528 109° East 187 215 5,500 -683 Descending Washington Center
09:47PM 35.8056 -79.1931 114° Southeast 184 212 4,700 -700 Descending Washington Center
09:48PM 35.7928 -79.1361 105° East 170 196 4,100 -605 Descending Washington Center
09:49PM 35.7756 -79.0842 112° Southeast 160 184 3,500 -893 Descending Washington Center
09:50PM 35.7603 -79.0347 111° Southeast 154 177 2,300 -639 Descending Washington Center
09:51PM 35.7489 -78.9908 108° East 136 157 2,200 -103 Descending Washington Center
09:52PM 35.7564 -78.9503 77° East 122 140 2,100  Descending Washington Center
09:53PM 35.7781 -78.9203 48° Northeast 116 133 2,200 49 Climbing Washington Center
09:54PM 35.8017 -78.8958 40° Northeast 114 131 2,200 -148 Level Washington Center
09:55PM 35.8256 -78.8658 46° Northeast 116 133 1,900 -492 Descending Washington Center
09:56PM 35.8450 -78.8386 49° Northeast 116 133 1,200 -639 Descending Washington Center
09:57PM 35.8686 -78.8089 46° Northeast 110 127 600 -590 Descending Washington Center
09:59PM 35.8667 -78.7833 49° Northeast  Level FlightAware Approximate
10:06PM 35.8776 -78.7875 343° North  Level Estimated

Login

Don't have an account? Register now (free) for customized features, flight alerts, and more!